Погода в Цинциннати

США     39°08′03″N   84°26′14″W
темп.,
°C
ветер,
м/с
пор.,
м/с
влажн.,
%
обл.,
%
осадки,
мм/ч
давл.,
гПа
погр.,
м
15 мая, сб
сб1523:00+12зюз11648 0.0 102512
02:00+11юз116492 0.0 102510
05:00+10ююз1166100 0.0 102510
08:00+11ююв126516 0.0 102786
11:00+18ююв244575 0.0 1025762
14:00+20ююв3332100 0.0 10242526
17:00+19ю2242100 0.0 10231774
20:00+16юз2662100 0.0 1022207
16 мая, вс
вс1623:00+13ю1161100 0.0 102317
02:00+13ююв1360100 0.0 1022120
05:00+12вюв127398 0.0 102291
08:00+12юв1292100 0.4 102472
11:00+13юв2495100 0.9 1024285
14:00+15ю2484100 1.1 1023521
17:00+16ю2478100 0.0 1022584
20:00+15вюв2390100 0.0 1022137
17 мая, пн
пн1723:00+13юв2498100 0.0 1022103
02:00+12вюв2596100 0.0 1021126
05:00+13вюв2698100 0.8 1020214
08:00+13вюв3899100 3.2 1021301
11:00+16вюв3595100 0.7 1022382
14:00+18юв3488100 0.8 1021506
17:00+21вюв2274100 0.6 1020764
20:00+17зюз3695100 4.6 1021170
18 мая, вт
вт1823:00+15ю2398100 0.6 102396
02:00+15юв2599100 1.1 1022145
05:00+15вюв2698100 0.1 1022186
08:00+15ююв2697100 0.4 1023212
11:00+18ююв3992100 0.1 1024462
14:00+17ю2695100 0.4 1024312
17:00+17ююв2896100 0.3 1023303
20:00+17ююв2895100 0.4 1023240
19 мая, ср
ср1923:00+16юв21192100 0.0 1023262
02:00+16юв2789100 0.0 1023175
05:00+16юв21091100 0.0 1023243
08:00+16ююв269099 0.0 1025156
11:00+21ю387397 0.0 1025394
14:00+26ююз465249 0.0 10241510
17:00+25ююз456331 0.3 10241078
20:00+22юв11796 0.4 102411